When you browse on this site, cookies collect data to enhance your experience and personalize the content and advertising you see.
Visit our Privacy Policy to learn more. By continuing to use the site, you agree to this use of cookies and data.

Hourly Weather Lyman (Krasnyj Liman)

Today, 26 September, Saturday

Time Temperature Precipitation Wind Pressure Humidity
00:00 +17°C° 0 mm 4 mps 751 mmHg 43%
01:00 +17°C° 0 mm 4 mps 751 mmHg 45%
02:00 +15°C° 0 mm 4 mps 751 mmHg 46%
03:00 +14°C° 0 mm 4 mps 751 mmHg 48%
04:00 +14°C° 0 mm 4 mps 751 mmHg 48%
05:00 +14°C° 0 mm 4 mps 751 mmHg 49%
06:00 +14°C° 0 mm 4 mps 751 mmHg 49%
07:00 +16°C° 0 mm 5 mps 751 mmHg 44%
08:00 +19°C° 0 mm 6 mps 751 mmHg 39%
09:00 +20°C° 0 mm 6 mps 750 mmHg 35%
10:00 +23°C° 0 mm 7 mps 751 mmHg 29%
11:00 +26°C° 0 mm 7 mps 751 mmHg 23%
12:00 +29°C° 0 mm 8 mps 751 mmHg 16%
13:00 +29°C° 0 mm 8 mps 750 mmHg 17%
14:00 +31°C° 0 mm 8 mps 750 mmHg 17%
15:00 +31°C° 0 mm 8 mps 750 mmHg 17%
16:00 +29°C° 0 mm 7 mps 750 mmHg 19%
17:00 +27°C° 0 mm 6 mps 750 mmHg 22%
18:00 +26°C° 0 mm 6 mps 750 mmHg 25%
19:00 +24°C° 0 mm 6 mps 750 mmHg 27%
20:00 +23°C° 0 mm 7 mps 750 mmHg 29%
21:00 +22°C° 0 mm 7 mps 751 mmHg 31%
22:00 +21°C° 0 mm 7 mps 751 mmHg 33%
23:00 +21°C° 0 mm 7 mps 751 mmHg 34%

Tomorrow, 27 September, Sunday

Time Temperature Precipitation Wind Pressure Humidity
00:00 +20°C° 0 mm 7 mps 751 mmHg 35%
01:00 +18°C° 0 mm 7 mps 751 mmHg 38%
02:00 +17°C° 0 mm 7 mps 752 mmHg 40%
03:00 +17°C° 0 mm 7 mps 752 mmHg 42%
04:00 +16°C° 0 mm 7 mps 752 mmHg 44%
05:00 +16°C° 0 mm 7 mps 752 mmHg 47%
06:00 +15°C° 0 mm 7 mps 752 mmHg 49%
07:00 +16°C° 0 mm 8 mps 752 mmHg 48%
08:00 +16°C° 0 mm 8 mps 753 mmHg 47%
09:00 +17°C° 0 mm 8 mps 753 mmHg 45%
10:00 +19°C° 0 mm 9 mps 753 mmHg 41%
11:00 +22°C° 0 mm 9 mps 753 mmHg 36%
12:00 +24°C° 0 mm 9 mps 753 mmHg 32%
13:00 +26°C° 0 mm 9 mps 753 mmHg 31%
14:00 +26°C° 0 mm 8 mps 753 mmHg 30%
15:00 +27°C° 0 mm 8 mps 752 mmHg 29%
16:00 +26°C° 0 mm 7 mps 753 mmHg 30%
17:00 +26°C° 0 mm 6 mps 753 mmHg 32%
18:00 +26°C° 0 mm 5 mps 753 mmHg 33%
19:00 +25°C° 0.1 mm 5 mps 753 mmHg 35%
20:00 +23°C° 0.1 mm 5 mps 753 mmHg 37%
21:00 +22°C° 0.1 mm 5 mps 753 mmHg 38%
22:00 +22°C° 0.1 mm 6 mps 754 mmHg 41%
23:00 +21°C° 0.1 mm 6 mps 754 mmHg 44%

Day after tomorrow, 28 September, Monday

Time Temperature Precipitation Wind Pressure Humidity
00:00 +21°C° 0.1 mm 6 mps 754 mmHg 47%
01:00 +20°C° 0.4 mm 6 mps 754 mmHg 52%
02:00 +19°C° 0.4 mm 5 mps 754 mmHg 58%
03:00 +17°C° 0.4 mm 5 mps 755 mmHg 64%
04:00 +16°C° 0.5 mm 5 mps 755 mmHg 66%
05:00 +16°C° 0.5 mm 5 mps 755 mmHg 68%
06:00 +15°C° 0.5 mm 4 mps 756 mmHg 70%
07:00 +16°C° 0 mm 5 mps 756 mmHg 66%
08:00 +16°C° 0 mm 5 mps 756 mmHg 61%
09:00 +17°C° 0 mm 5 mps 756 mmHg 57%
10:00 +19°C° 0 mm 5 mps 756 mmHg 52%
11:00 +21°C° 0 mm 5 mps 757 mmHg 47%
12:00 +22°C° 0 mm 5 mps 757 mmHg 41%
13:00 +23°C° 0 mm 5 mps 756 mmHg 39%
14:00 +26°C° 0 mm 5 mps 756 mmHg 36%
15:00 +27°C° 0 mm 5 mps 756 mmHg 33%
16:00 +26°C° 0 mm 5 mps 756 mmHg 34%
17:00 +25°C° 0 mm 4 mps 756 mmHg 35%
18:00 +24°C° 0 mm 3 mps 756 mmHg 36%
19:00 +22°C° 0 mm 4 mps 756 mmHg 36%
20:00 +22°C° 0 mm 5 mps 756 mmHg 36%
21:00 +21°C° 0 mm 5 mps 756 mmHg 36%
22:00 +20°C° 0 mm 5 mps 756 mmHg 38%
23:00 +20°C° 0 mm 5 mps 756 mmHg 40%

29 September, Tuesday

Time Temperature Precipitation Wind Pressure Humidity
00:00 +19°C° 0 mm 6 mps 756 mmHg 42%
01:00 +17°C° 0 mm 6 mps 756 mmHg 44%
02:00 +17°C° 0 mm 6 mps 756 mmHg 47%
03:00 +16°C° 0 mm 6 mps 756 mmHg 49%
04:00 +16°C° 0 mm 6 mps 756 mmHg 50%
05:00 +15°C° 0 mm 6 mps 756 mmHg 51%
06:00 +15°C° 0 mm 7 mps 756 mmHg 52%
07:00 +15°C° 0.1 mm 7 mps 756 mmHg 55%
08:00 +15°C° 0.1 mm 7 mps 755 mmHg 58%
09:00 +15°C° 0.1 mm 7 mps 755 mmHg 61%
10:00 +15°C° 0 mm 7 mps 755 mmHg 56%
11:00 +16°C° 0 mm 7 mps 755 mmHg 51%
12:00 +17°C° 0 mm 7 mps 755 mmHg 47%
13:00 +18°C° 0 mm 7 mps 754 mmHg 42%
14:00 +20°C° 0 mm 7 mps 754 mmHg 38%
15:00 +21°C° 0 mm 7 mps 754 mmHg 33%
16:00 +21°C° 0 mm 7 mps 753 mmHg 32%
17:00 +21°C° 0 mm 7 mps 753 mmHg 31%
18:00 +22°C° 0 mm 7 mps 753 mmHg 30%
19:00 +21°C° 0 mm 7 mps 752 mmHg 29%
20:00 +21°C° 0 mm 7 mps 752 mmHg 28%
21:00 +21°C° 0 mm 8 mps 752 mmHg 27%
22:00 +20°C° 0 mm 8 mps 751 mmHg 30%
23:00 +20°C° 0 mm 8 mps 751 mmHg 32%

30 September, Wednesday

Time Temperature Precipitation Wind Pressure Humidity
00:00 +20°C° 0 mm 8 mps 751 mmHg 34%
01:00 +18°C° 0 mm 8 mps 751 mmHg 37%
02:00 +17°C° 0 mm 8 mps 750 mmHg 40%
03:00 +17°C° 0 mm 8 mps 750 mmHg 43%
04:00 +16°C° 0 mm 8 mps 750 mmHg 45%
05:00 +15°C° 0 mm 8 mps 750 mmHg 47%
06:00 +15°C° 0 mm 8 mps 750 mmHg 49%
07:00 +15°C° 0 mm 8 mps 750 mmHg 48%
08:00 +15°C° 0 mm 9 mps 750 mmHg 47%
09:00 +15°C° 0 mm 9 mps 750 mmHg 47%
10:00 +17°C° 0 mm 9 mps 750 mmHg 43%
11:00 +18°C° 0 mm 10 mps 749 mmHg 40%
12:00 +21°C° 0 mm 10 mps 749 mmHg 37%
13:00 +21°C° 0 mm 10 mps 749 mmHg 36%
14:00 +21°C° 0 mm 10 mps 748 mmHg 35%
15:00 +21°C° 0 mm 9 mps 748 mmHg 34%
16:00 +19°C° 0.1 mm 9 mps 748 mmHg 36%
17:00 +20°C° 0.1 mm 8 mps 748 mmHg 38%
18:00 +20°C° 0.1 mm 8 mps 748 mmHg 40%
19:00 +20°C° 0.1 mm 8 mps 748 mmHg 39%
20:00 +20°C° 0.1 mm 8 mps 748 mmHg 39%
21:00 +20°C° 0.1 mm 8 mps 748 mmHg 38%
22:00 +20°C° 0.1 mm 8 mps 748 mmHg 39%
23:00 +18°C° 0.1 mm 9 mps 748 mmHg 40%

1 October, Thursday

Time Temperature Precipitation Wind Pressure Humidity
00:00 +18°C° 0.1 mm 9 mps 748 mmHg 41%
01:00 +17°C° 0.1 mm 9 mps 748 mmHg 42%
02:00 +16°C° 0.1 mm 8 mps 749 mmHg 44%
03:00 +16°C° 0.1 mm 8 mps 749 mmHg 46%
04:00 +15°C° 0.2 mm 8 mps 749 mmHg 50%
05:00 +15°C° 0.2 mm 8 mps 749 mmHg 53%
06:00 +15°C° 0.2 mm 7 mps 750 mmHg 57%
07:00 +14°C° 0.2 mm 7 mps 750 mmHg 62%
08:00 +13°C° 0.2 mm 8 mps 750 mmHg 67%
09:00 +13°C° 0.2 mm 8 mps 751 mmHg 72%
10:00 +14°C° 1.3 mm 7 mps 751 mmHg 73%
11:00 +14°C° 1.3 mm 7 mps 751 mmHg 73%
12:00 +14°C° 1.3 mm 6 mps 751 mmHg 73%
13:00 +15°C° 0.1 mm 5 mps 751 mmHg 70%
14:00 +15°C° 0.1 mm 5 mps 751 mmHg 66%
15:00 +17°C° 0.1 mm 4 mps 751 mmHg 63%
16:00 +17°C° 0 mm 4 mps 751 mmHg 59%
17:00 +17°C° 0 mm 3 mps 751 mmHg 55%
18:00 +18°C° 0 mm 3 mps 751 mmHg 52%
19:00 +17°C° 0.3 mm 3 mps 751 mmHg 54%
20:00 +17°C° 0.3 mm 3 mps 751 mmHg 56%
21:00 +16°C° 0.3 mm 3 mps 751 mmHg 57%
22:00 +15°C° 0.3 mm 4 mps 751 mmHg 57%
23:00 +15°C° 0.3 mm 5 mps 752 mmHg 57%
Show more